Time,TemperatureF,DewpointF,PressureIn,WindDirection,WindDirectionDegrees,WindSpeedMPH,WindSpeedGustMPH,Humidity,HourlyPrecipIn,Conditions,Clouds,dailyrainin,SoftwareType,DateUTC
2013-11-02 00:13:00,51.0,-99.9,-100.00,North,-999,-999.0,-999.0,-999,0.00,,,0.00,,2013-11-02 04:13:00,
2013-11-02 00:24:00,51.0,-99.9,-100.00,North,-999,-999.0,-999.0,-999,0.00,,,0.00,,2013-11-02 04:24:00,
2013-11-02 00:30:00,51.0,-99.9,-100.00,North,-999,-999.0,-999.0,-999,0.00,,,0.00,,2013-11-02 04:30:00,
2013-11-02 01:13:00,51.0,-99.9,-100.00,North,-999,-999.0,-999.0,-999,0.00,,,0.00,,2013-11-02 05:13:00,
2013-11-02 01:22:00,51.0,-99.9,-100.00,North,-999,-999.0,-999.0,-999,0.00,,,0.00,,2013-11-02 05:22:00,
2013-11-02 01:30:00,50.0,-99.9,-100.00,North,-999,-999.0,-999.0,-999,0.00,,,0.00,,2013-11-02 05:30:00,
2013-11-02 02:12:00,50.0,-99.9,-100.00,North,-999,-999.0,-999.0,-999,0.00,,,0.00,,2013-11-02 06:12:00,
2013-11-02 02:22:00,50.0,-99.9,-100.00,North,-999,-999.0,-999.0,-999,0.00,,,0.00,,2013-11-02 06:22:00,
2013-11-02 02:30:00,50.0,-99.9,-100.00,North,-999,-999.0,-999.0,-999,0.09,,,-99.99,,2013-11-02 06:30:00,
2013-11-02 03:12:00,50.0,-99.9,-100.00,North,-999,-999.0,-999.0,-999,0.09,,,-99.99,,2013-11-02 07:12:00,
2013-11-02 03:22:00,50.0,-99.9,-100.00,North,-999,-999.0,-999.0,-999,0.09,,,-99.99,,2013-11-02 07:22:00,
2013-11-02 03:30:00,50.0,-99.9,-100.00,North,-999,-999.0,-999.0,-999,0.04,,,0.13,,2013-11-02 07:30:00,
2013-11-02 04:12:00,50.0,-99.9,-100.00,North,-999,-999.0,-999.0,-999,0.04,,,0.13,,2013-11-02 08:12:00,
2013-11-02 04:22:00,50.0,-99.9,-100.00,North,-999,-999.0,-999.0,-999,0.04,,,0.13,,2013-11-02 08:22:00,
2013-11-02 04:30:00,50.0,-99.9,-100.00,North,-999,-999.0,-999.0,-999,0.09,,,0.22,,2013-11-02 08:30:00,
2013-11-02 05:11:00,50.0,-99.9,-100.00,North,-999,-999.0,-999.0,-999,0.09,,,0.22,,2013-11-02 09:11:00,
2013-11-02 05:22:00,50.0,-99.9,-100.00,North,-999,-999.0,-999.0,-999,0.09,,,0.22,,2013-11-02 09:22:00,
2013-11-02 05:30:00,50.0,-99.9,-100.00,North,-999,-999.0,-999.0,-999,0.15,,,0.37,,2013-11-02 09:30:00,
2013-11-02 06:13:00,50.0,-99.9,-100.00,North,-999,-999.0,-999.0,-999,0.15,,,0.37,,2013-11-02 10:13:00,
2013-11-02 06:23:00,50.0,-99.9,-100.00,North,-999,-999.0,-999.0,-999,0.15,,,0.37,,2013-11-02 10:23:00,
2013-11-02 06:30:00,50.0,-99.9,-100.00,North,-999,-999.0,-999.0,-999,0.08,,,0.45,,2013-11-02 10:30:00,
2013-11-02 07:12:00,50.0,-99.9,-100.00,North,-999,-999.0,-999.0,-999,0.08,,,0.45,,2013-11-02 11:12:00,
2013-11-02 07:22:00,50.0,-99.9,-100.00,North,-999,-999.0,-999.0,-999,0.08,,,0.45,,2013-11-02 11:22:00,
2013-11-02 07:30:00,50.0,-99.9,-100.00,North,-999,-999.0,-999.0,-999,0.07,,,0.52,,2013-11-02 11:30:00,
2013-11-02 08:12:00,50.0,-99.9,-100.00,North,-999,-999.0,-999.0,-999,0.07,,,0.52,,2013-11-02 12:12:00,
2013-11-02 08:22:00,50.0,-99.9,-100.00,North,-999,-999.0,-999.0,-999,0.07,,,0.52,,2013-11-02 12:22:00,
2013-11-02 08:30:00,50.0,-99.9,-100.00,North,-999,-999.0,-999.0,-999,0.03,,,0.55,,2013-11-02 12:30:00,
2013-11-02 09:12:00,50.0,-99.9,-100.00,North,-999,-999.0,-999.0,-999,0.03,,,0.55,,2013-11-02 13:12:00,
2013-11-02 09:22:00,50.0,-99.9,-100.00,North,-999,-999.0,-999.0,-999,0.03,,,0.55,,2013-11-02 13:22:00,
2013-11-02 09:30:00,51.0,-99.9,-100.00,North,-999,-999.0,-999.0,-999,0.04,,,0.59,,2013-11-02 13:30:00,
2013-11-02 10:11:00,51.0,-99.9,-100.00,North,-999,-999.0,-999.0,-999,0.04,,,0.59,,2013-11-02 14:11:00,
2013-11-02 10:22:00,51.0,-99.9,-100.00,North,-999,-999.0,-999.0,-999,0.04,,,0.59,,2013-11-02 14:22:00,
2013-11-02 10:30:00,47.0,-99.9,-100.00,North,-999,-999.0,-999.0,-999,0.02,,,0.61,,2013-11-02 14:30:00,
2013-11-02 11:11:00,47.0,-99.9,-100.00,North,-999,-999.0,-999.0,-999,0.02,,,0.61,,2013-11-02 15:11:00,
2013-11-02 11:22:00,47.0,-99.9,-100.00,North,-999,-999.0,-999.0,-999,0.02,,,0.61,,2013-11-02 15:22:00,
2013-11-02 11:30:00,47.0,-99.9,-100.00,North,-999,-999.0,-999.0,-999,0.01,,,-99.99,,2013-11-02 15:30:00,
2013-11-02 12:13:00,47.0,-99.9,-100.00,North,-999,-999.0,-999.0,-999,0.01,,,-99.99,,2013-11-02 16:13:00,
2013-11-02 12:24:00,47.0,-99.9,-100.00,North,-999,-999.0,-999.0,-999,0.01,,,-99.99,,2013-11-02 16:24:00,
2013-11-02 12:30:00,46.0,-99.9,-100.00,North,-999,-999.0,-999.0,-999,0.03,,,0.65,,2013-11-02 16:30:00,
2013-11-02 13:13:00,46.0,-99.9,-100.00,North,-999,-999.0,-999.0,-999,0.03,,,0.65,,2013-11-02 17:13:00,
2013-11-02 13:22:00,46.0,-99.9,-100.00,North,-999,-999.0,-999.0,-999,0.03,,,0.65,,2013-11-02 17:22:00,
2013-11-02 13:30:00,46.0,-99.9,-100.00,North,-999,-999.0,-999.0,-999,0.05,,,0.70,,2013-11-02 17:30:00,
2013-11-02 14:12:00,46.0,-99.9,-100.00,North,-999,-999.0,-999.0,-999,0.05,,,0.70,,2013-11-02 18:12:00,
2013-11-02 14:22:00,46.0,-99.9,-100.00,North,-999,-999.0,-999.0,-999,0.05,,,0.70,,2013-11-02 18:22:00,
2013-11-02 14:30:00,48.0,-99.9,-100.00,North,-999,-999.0,-999.0,-999,0.01,,,0.71,,2013-11-02 18:30:00,
2013-11-02 15:12:00,48.0,-99.9,-100.00,North,-999,-999.0,-999.0,-999,0.01,,,0.71,,2013-11-02 19:12:00,
2013-11-02 15:22:00,48.0,-99.9,-100.00,North,-999,-999.0,-999.0,-999,0.01,,,0.71,,2013-11-02 19:22:00,
2013-11-02 15:30:00,51.0,-99.9,-100.00,North,-999,-999.0,-999.0,-999,0.01,,,0.72,,2013-11-02 19:30:00,
2013-11-02 16:12:00,51.0,-99.9,-100.00,North,-999,-999.0,-999.0,-999,0.01,,,0.72,,2013-11-02 20:12:00,
2013-11-02 16:22:00,51.0,-99.9,-100.00,North,-999,-999.0,-999.0,-999,0.01,,,0.72,,2013-11-02 20:22:00,
2013-11-02 16:30:00,50.0,-99.9,-100.00,North,-999,-999.0,-999.0,-999,0.01,,,0.73,,2013-11-02 20:30:00,
2013-11-02 17:12:00,50.0,-99.9,-100.00,North,-999,-999.0,-999.0,-999,0.01,,,0.73,,2013-11-02 21:12:00,
2013-11-02 17:22:00,50.0,-99.9,-100.00,North,-999,-999.0,-999.0,-999,0.01,,,0.73,,2013-11-02 21:22:00,
2013-11-02 17:30:00,47.0,-99.9,-100.00,North,-999,-999.0,-999.0,-999,0.01,,,0.74,,2013-11-02 21:30:00,
2013-11-02 18:13:00,47.0,-99.9,-100.00,North,-999,-999.0,-999.0,-999,0.01,,,0.74,,2013-11-02 22:13:00,
2013-11-02 18:24:00,47.0,-99.9,-100.00,North,-999,-999.0,-999.0,-999,0.01,,,0.74,,2013-11-02 22:24:00,
2013-11-02 18:30:00,50.0,-99.9,-100.00,North,-999,-999.0,-999.0,-999,0.00,,,0.74,,2013-11-02 22:30:00,
2013-11-02 19:12:00,50.0,-99.9,-100.00,North,-999,-999.0,-999.0,-999,0.00,,,0.74,,2013-11-02 23:12:00,
2013-11-02 19:22:00,50.0,-99.9,-100.00,North,-999,-999.0,-999.0,-999,0.00,,,0.74,,2013-11-02 23:22:00,
2013-11-02 19:30:00,50.0,-99.9,-100.00,North,-999,-999.0,-999.0,-999,0.00,,,0.74,,2013-11-02 23:30:00,
2013-11-02 20:12:00,50.0,-99.9,-100.00,North,-999,-999.0,-999.0,-999,0.00,,,0.74,,2013-11-03 00:12:00,
2013-11-02 20:22:00,50.0,-99.9,-100.00,North,-999,-999.0,-999.0,-999,0.00,,,0.74,,2013-11-03 00:22:00,
2013-11-02 20:30:00,45.0,-99.9,-100.00,North,-999,-999.0,-999.0,-999,0.01,,,0.75,,2013-11-03 00:30:00,
2013-11-02 21:11:00,45.0,-99.9,-100.00,North,-999,-999.0,-999.0,-999,0.01,,,0.75,,2013-11-03 01:11:00,
2013-11-02 21:22:00,45.0,-99.9,-100.00,North,-999,-999.0,-999.0,-999,0.01,,,0.75,,2013-11-03 01:22:00,
2013-11-02 21:30:00,45.0,-99.9,-100.00,North,-999,-999.0,-999.0,-999,0.03,,,0.78,,2013-11-03 01:30:00,
2013-11-02 22:11:00,45.0,-99.9,-100.00,North,-999,-999.0,-999.0,-999,0.03,,,0.78,,2013-11-03 02:11:00,
2013-11-02 22:22:00,45.0,-99.9,-100.00,North,-999,-999.0,-999.0,-999,0.03,,,0.78,,2013-11-03 02:22:00,
2013-11-02 22:30:00,45.0,-99.9,-100.00,North,-999,-999.0,-999.0,-999,0.00,,,0.78,,2013-11-03 02:30:00,
2013-11-02 23:12:00,45.0,-99.9,-100.00,North,-999,-999.0,-999.0,-999,0.00,,,0.78,,2013-11-03 03:12:00,
2013-11-02 23:22:00,45.0,-99.9,-100.00,North,-999,-999.0,-999.0,-999,0.00,,,0.78,,2013-11-03 03:22:00,
2013-11-02 23:30:00,44.0,-99.9,-100.00,North,-999,-999.0,-999.0,-999,0.02,,,0.80,,2013-11-03 03:30:00,